Weather History for Warrensburg, MO

Change the Weather History Date:

Friday, March 8, 2013

  Actual Average (KSZL) Record (KSZL)
Temperature  
Mean Temperature 41 °F -  
Max Temperature 50 °F 47 °F 73 °F (2006)
Min Temperature 32 °F 27 °F 12 °F (2008)
Degree Days  
Heating Degree Days 24    
Moisture  
Dew Point 31 °F    
Average Humidity 69    
Maximum Humidity 87    
Minimum Humidity 50    
Precipitation  
Precipitation 0.02 in - - ()
Sea Level Pressure  
Sea Level Pressure 30.17 in    
Wind  
Wind Speed 7 mph (East)    
Max Wind Speed 12 mph    
Max Gust Speed 17 mph    
Visibility 10 miles    
Events Rain    
Averages and records for this station are not official NWS values.
T = Trace of Precipitation, MM = Missing Value Source: NWS Daily Summary

Daily Weather History Graph

Daily Weather History Graph

Search for Another Location

Airport:

Trip Planner

Search our weather history database for the weather conditions in past years. The results will help you decide how hot, cold, wet, or windy it might be!

Date:

Astronomy

Mar. 08, 2013 Rise Set
Actual Time 6:36 AM CST 6:15 PM CST
Civil Twilight 6:10 AM CST 6:42 PM CST
Nautical Twilight 5:39 AM CST 7:12 PM CST
Astronomical Twilight 5:08 AM CST 7:43 PM CST
Moon 4:19 AM CST (3/8) 3:12 PM CST (3/8)
Length of Visible Light 12h 31m
Length of Day
11h 38m
Waning Crescent, 11% of the Moon is Illuminated
Mar 8
Waning Crescent
Mar 11
New
Mar 19
First Quarter
Mar 27
Full
Apr 2
Last Quarter

Hourly Weather History & Observations

Time (CST) Temp. Windchill Dew Point Humidity Pressure Visibility Wind Dir Wind Speed Gust Speed Precip Events Conditions
12:15 AM 33.8 °F 28.6 °F 28.4 °F 81% 30.23 in 10.0 mi NE 5.8 mph - N/A   Clear
12:35 AM 33.8 °F 29.6 °F 28.4 °F 81% 30.23 in 10.0 mi ENE 4.6 mph - N/A   Clear
12:55 AM 32.0 °F 25.6 °F 26.6 °F 80% 30.24 in 10.0 mi ENE 6.9 mph - N/A   Clear
1:15 AM 32.0 °F 25.6 °F 26.6 °F 80% 30.24 in 10.0 mi NE 6.9 mph - N/A   Clear
1:35 AM 32.0 °F 25.6 °F 26.6 °F 80% 30.25 in 10.0 mi NE 6.9 mph - N/A   Clear
1:55 AM 32.0 °F 26.4 °F 26.6 °F 80% 30.25 in 10.0 mi ENE 5.8 mph - N/A   Clear
2:15 AM 32.0 °F 26.4 °F 26.6 °F 80% 30.24 in 10.0 mi ENE 5.8 mph - N/A   Clear
2:35 AM 32.0 °F 26.4 °F 26.6 °F 80% 30.24 in 10.0 mi ENE 5.8 mph - N/A   Clear
2:55 AM 32.0 °F 26.4 °F 26.6 °F 80% 30.23 in 10.0 mi ENE 5.8 mph - N/A   Clear
3:15 AM 32.0 °F 27.5 °F 26.6 °F 80% 30.23 in 10.0 mi East 4.6 mph - N/A   Clear
3:35 AM 32.0 °F 26.4 °F 26.6 °F 80% 30.23 in 10.0 mi ENE 5.8 mph - N/A   Clear
3:55 AM 32.0 °F 26.4 °F 26.6 °F 80% 30.22 in 10.0 mi ENE 5.8 mph - N/A   Clear
4:15 AM 32.0 °F 26.4 °F 26.6 °F 80% 30.23 in 10.0 mi ENE 5.8 mph - N/A   Clear
4:35 AM 32.0 °F 26.4 °F 26.6 °F 80% 30.23 in 10.0 mi ENE 5.8 mph - N/A   Clear
4:55 AM 32.0 °F 26.4 °F 26.6 °F 80% 30.22 in 10.0 mi ENE 5.8 mph - N/A   Clear
5:15 AM 32.0 °F 25.6 °F 26.6 °F 80% 30.22 in 10.0 mi East 6.9 mph - N/A   Clear
5:35 AM 32.0 °F 26.4 °F 28.4 °F 87% 30.22 in 10.0 mi East 5.8 mph - N/A   Clear
5:55 AM 32.0 °F 27.5 °F 26.6 °F 80% 30.23 in 10.0 mi ESE 4.6 mph - N/A   Clear
6:15 AM 32.0 °F 26.4 °F 28.4 °F 87% 30.24 in 10.0 mi SE 5.8 mph - N/A   Clear
6:35 AM 32.0 °F 26.4 °F 28.4 °F 87% 30.25 in 10.0 mi SE 5.8 mph - N/A   Clear
6:55 AM 32.0 °F 26.4 °F 28.4 °F 87% 30.24 in 10.0 mi ESE 5.8 mph - N/A   Clear
7:15 AM 33.8 °F 27.7 °F 28.4 °F 81% 30.24 in 10.0 mi ESE 6.9 mph - N/A   Clear
7:35 AM 33.8 °F 26.4 °F 30.2 °F 87% 30.23 in 10.0 mi ESE 9.2 mph - N/A   Clear
7:55 AM 35.6 °F 28.6 °F 30.2 °F 81% 30.24 in 10.0 mi SE 9.2 mph - N/A   Clear
8:15 AM 37.4 °F 30.3 °F 32.0 °F 81% 30.24 in 10.0 mi SE 10.4 mph - N/A   Clear
8:35 AM 37.4 °F 29.8 °F 32.0 °F 81% 30.24 in 10.0 mi SE 11.5 mph 17.3 mph N/A   Clear
8:55 AM 37.4 °F 29.8 °F 32.0 °F 81% 30.24 in 10.0 mi SE 11.5 mph - N/A   Clear
9:15 AM 41.0 °F 34.7 °F 32.0 °F 70% 30.23 in 10.0 mi SE 10.4 mph - N/A   Clear
9:35 AM 41.0 °F 35.2 °F 32.0 °F 70% 30.23 in 10.0 mi SE 9.2 mph - N/A   Clear
9:55 AM 41.0 °F 36.4 °F 32.0 °F 70% 30.23 in 10.0 mi SE 6.9 mph - N/A   Clear
10:15 AM 42.8 °F 38.6 °F 32.0 °F 66% 30.22 in 10.0 mi SE 6.9 mph - N/A   Clear
10:35 AM 42.8 °F 38.0 °F 32.0 °F 66% 30.22 in 10.0 mi SE 8.1 mph - N/A   Clear
10:55 AM 44.6 °F 40.2 °F 32.0 °F 61% 30.22 in 10.0 mi SE 8.1 mph - N/A   Clear
11:15 AM 44.6 °F 40.7 °F 32.0 °F 61% 30.21 in 10.0 mi ESE 6.9 mph - N/A   Clear
11:35 AM 46.4 °F 42.9 °F 32.0 °F 57% 30.21 in 10.0 mi ESE 6.9 mph - N/A   Clear
11:55 AM 46.4 °F 43.5 °F 32.0 °F 57% 30.21 in 10.0 mi East 5.8 mph - N/A   Clear
12:15 PM 48.2 °F - 32.0 °F 54% 30.20 in 10.0 mi East 5.8 mph - N/A   Clear
12:35 PM 50.0 °F - 32.0 °F 50% 30.20 in 10.0 mi East 6.9 mph - N/A   Clear
12:55 PM 50.0 °F - 32.0 °F 50% 30.19 in 10.0 mi East 8.1 mph - N/A   Clear
1:15 PM 50.0 °F - 32.0 °F 50% 30.18 in 10.0 mi East 10.4 mph - N/A   Clear
1:35 PM 50.0 °F - 32.0 °F 50% 30.17 in 10.0 mi East 11.5 mph - N/A   Clear
1:55 PM 50.0 °F - 32.0 °F 50% 30.16 in 10.0 mi East 10.4 mph - N/A   Clear
2:15 PM 50.0 °F - 32.0 °F 50% 30.15 in 10.0 mi East 8.1 mph - N/A   Clear
2:35 PM 48.2 °F - 32.0 °F 54% 30.15 in 10.0 mi East 10.4 mph - N/A   Scattered Clouds
2:55 PM 48.2 °F - 32.0 °F 54% 30.15 in 10.0 mi East 9.2 mph - N/A   Scattered Clouds
3:15 PM 46.4 °F 41.5 °F 32.0 °F 57% 30.15 in 10.0 mi East 10.4 mph - N/A   Mostly Cloudy
3:35 PM 46.4 °F 41.1 °F 32.0 °F 57% 30.13 in 10.0 mi East 11.5 mph - N/A   Scattered Clouds
3:55 PM 46.4 °F 41.9 °F 32.0 °F 57% 30.12 in 10.0 mi East 9.2 mph - N/A   Scattered Clouds
4:15 PM 46.4 °F 42.4 °F 32.0 °F 57% 30.12 in 10.0 mi East 8.1 mph - N/A   Mostly Cloudy
4:35 PM 44.6 °F 39.2 °F 32.0 °F 61% 30.11 in 10.0 mi ENE 10.4 mph - N/A   Mostly Cloudy
4:55 PM 44.6 °F 39.2 °F 32.0 °F 61% 30.11 in 10.0 mi ENE 10.4 mph - N/A   Scattered Clouds
5:35 PM 44.6 °F 40.2 °F 32.0 °F 61% 30.10 in 10.0 mi East 8.1 mph - N/A   Mostly Cloudy
5:55 PM 44.6 °F 40.7 °F 32.0 °F 61% 30.10 in 10.0 mi East 6.9 mph - N/A   Mostly Cloudy
6:15 PM 46.4 °F 41.5 °F 32.0 °F 57% 30.10 in 10.0 mi East 10.4 mph - N/A   Mostly Cloudy
6:55 PM 46.4 °F 41.1 °F 32.0 °F 57% 30.10 in 10.0 mi ESE 11.5 mph - N/A   Light Drizzle
7:15 PM 44.6 °F 39.2 °F 32.0 °F 61% 30.10 in 10.0 mi ESE 10.4 mph - N/A   Light Drizzle
7:35 PM 44.6 °F 39.2 °F 32.0 °F 61% 30.10 in 10.0 mi ESE 10.4 mph - N/A   Overcast
7:55 PM 44.6 °F 38.8 °F 32.0 °F 61% 30.10 in 10.0 mi ESE 11.5 mph - N/A   Light Drizzle
8:15 PM 44.6 °F 39.2 °F 32.0 °F 61% 30.10 in 10.0 mi ESE 10.4 mph 16.1 mph N/A   Light Drizzle
8:35 PM 44.6 °F 39.7 °F 32.0 °F 61% 30.09 in 10.0 mi ESE 9.2 mph - N/A   Light Drizzle
8:55 PM 44.6 °F 39.2 °F 32.0 °F 61% 30.08 in 10.0 mi ESE 10.4 mph - N/A   Light Drizzle
9:15 PM 44.6 °F 38.8 °F 32.0 °F 61% 30.08 in 10.0 mi ESE 11.5 mph - N/A   Overcast
9:35 PM 44.6 °F 40.2 °F 33.8 °F 66% 30.09 in 10.0 mi SE 8.1 mph - N/A Rain Light Rain
9:55 PM 42.8 °F 36.6 °F 33.8 °F 70% 30.09 in 10.0 mi SE 11.5 mph - N/A   Light Drizzle
10:15 PM 42.8 °F 38.6 °F 35.6 °F 76% 30.08 in 10.0 mi ESE 6.9 mph - N/A Rain Light Rain
10:35 PM 42.8 °F 38.0 °F 35.6 °F 76% 30.07 in 10.0 mi ESE 8.1 mph - 0.01 in   Overcast
10:55 PM 42.8 °F 37.5 °F 35.6 °F 76% 30.06 in 10.0 mi ESE 9.2 mph - 0.01 in   Drizzle
11:15 PM 42.8 °F 37.5 °F 35.6 °F 76% 30.05 in 10.0 mi ESE 9.2 mph - N/A   Drizzle
11:35 PM 42.8 °F 37.0 °F 35.6 °F 76% 30.04 in 10.0 mi ESE 10.4 mph - 0.01 in   Light Drizzle
11:55 PM 42.8 °F 36.6 °F 35.6 °F 76% 30.03 in 10.0 mi SE 11.5 mph - 0.01 in   Light Drizzle